Location: Aalsum
(53.3404°N, 6.0062°E)
Time: 08:51:21
(UTC+00:00)

Cosmos 468 Rocket - Pass Details

Date: 28 January 2023
Orbit: 744 x 778 km, 74.0° (Epoch: 19 March)

Event Time Altitude Azimuth Distance (km) Brightness Sun altitude
Rises 18:29:23 0° 334° (NNW) 3,238 7.5 -20.4°
Reaches altitude 10° 18:31:48 10° 337° (NNW) 2,303 6.7 -20.8°
Maximum altitude 18:37:00 68° 60° (ENE) 817 3.9 -21.6°
Enters shadow 18:38:33 44° 127° (SE) 1,038 4.3 -21.8°
